Pittsfield, MA

10:24 PM EST on December 05, 2019 (GMT -0500)
Pittsfield Municipal

Weather History for KPSF - August, 2019

Change the Weather History Date:

Wednesday, August 14, 2019

  Actual Average Record
Temperature  
Mean Temperature 70 °F 67 °F  
Max Temperature 82 °F 78 °F 93 °F (1935)
Min Temperature 57 °F 56 °F 40 °F (1961)
Degree Days  
Heating Degree Days 0 1  
Month to date heating degree days 2 14  
Since 1 June heating degree days 69 146  
Since 1 July heating degree days 2 45  
Cooling Degree Days 5 3  
Month to date cooling degree days 53 54  
Year to date cooling degree days 329 231  
Since 1 June cooling degree days 323 218  
Growing Degree Days 20 (Base 50)    
Moisture  
Dew Point 61 °F    
Average Humidity 71    
Maximum Humidity 100    
Minimum Humidity 42    
Precipitation  
Precipitation 0.03 in 0.13 in 2.27 in (1999)
Month to date precipitation 0.66 1.92  
Year to date precipitation 26.80 27.61  
Sea Level Pressure  
Sea Level Pressure 29.82 in    
Wind  
Wind Speed 2 mph (North)    
Max Wind Speed 9 mph    
Max Gust Speed 14 mph    
Visibility 7 miles    
Events Fog , Rain    
T = Trace of Precipitation, MM = Missing Value Source: NWS Daily Summary

Daily Weather History Graph

Daily Weather History Graph

Search for Another Location

Airport or City:

Astronomy

Aug. 14, 2019 Rise Set
Actual Time 5:58 AM EDT 7:56 PM EDT
Civil Twilight 5:28 AM EDT 8:26 PM EDT
Nautical Twilight 4:51 AM EDT 9:03 PM EDT
Astronomical Twilight 4:10 AM EDT 9:43 PM EDT
Moon 7:49 PM EDT (8/14) 4:51 AM EDT (8/14)
Length of Visible Light 14h 58m
Length of Day
13h 57m
Waxing Gibbous, 99% of the Moon is Illuminated
Aug 14
Waxing Gibbous
Aug 15
Full
Aug 23
Last Quarter
Aug 30
New
Sep 5
First Quarter

Hourly Weather History & Observations

Time (EDT) Temp. Heat Index Dew Point Humidity Pressure Visibility Wind Dir Wind Speed Gust Speed Precip Events Conditions
12:36 AM 64.9 °F - 63.0 °F 93% 29.83 in 8.0 mi Calm Calm - N/A   Scattered Clouds
12:54 AM 64.9 °F - 64.0 °F 97% 29.75 in 3.0 mi Calm Calm - N/A   Mostly Cloudy
12:57 AM 64.9 °F - 64.0 °F 97% 29.82 in 1.8 mi Calm Calm - N/A   Overcast
1:46 AM 66.9 °F - 64.0 °F 90% 29.82 in 3.0 mi North 3.5 mph - N/A   Overcast
1:54 AM 66.0 °F - 64.0 °F 93% 29.75 in 2.5 mi Calm Calm - N/A   Overcast
2:16 AM 66.0 °F - 64.0 °F 93% 29.82 in 4.0 mi Calm Calm - N/A   Overcast
2:35 AM 66.0 °F - 64.0 °F 93% 29.81 in 6.0 mi Calm Calm - N/A   Mostly Cloudy
2:54 AM 66.0 °F - 64.0 °F 93% 29.74 in 1.8 mi Calm Calm - N/A   Scattered Clouds
3:10 AM 66.0 °F - 64.0 °F 93% 29.81 in 0.2 mi Calm Calm - N/A Fog Fog
3:36 AM 64.9 °F - 63.0 °F 93% 29.82 in 0.5 mi Calm Calm - N/A Fog Fog
3:54 AM 64.0 °F - 63.0 °F 96% 29.75 in 0.8 mi Calm Calm - N/A   Overcast
4:01 AM 64.9 °F - 63.0 °F 93% 29.82 in 1.8 mi Calm Calm - N/A   Overcast
4:20 AM 64.9 °F - 63.0 °F 93% 29.82 in 4.0 mi Calm Calm - N/A   Overcast
4:54 AM 66.0 °F - 63.0 °F 90% 29.75 in 8.0 mi Calm Calm - N/A   Overcast
5:54 AM 64.0 °F - 62.1 °F 93% 29.77 in 9.0 mi Calm Calm - N/A   Overcast
6:54 AM 64.9 °F - 61.0 °F 87% 29.79 in 8.0 mi Calm Calm - 0.01 in Rain Light Rain
7:54 AM 66.0 °F - 62.1 °F 87% 29.81 in 9.0 mi Calm Calm - 0.00 in   Overcast
8:54 AM 66.9 °F - 61.0 °F 81% 29.82 in 10.0 mi Calm Calm - 0.01 in   Overcast
9:54 AM 68.0 °F - 61.0 °F 78% 29.83 in 10.0 mi North 6.9 mph - 0.01 in   Overcast
10:54 AM 70.0 °F - 60.1 °F 71% 29.83 in 10.0 mi NE 5.8 mph - N/A   Overcast
11:54 AM 73.0 °F - 60.1 °F 64% 29.82 in 10.0 mi North 4.6 mph - N/A   Mostly Cloudy
12:54 PM 77.0 °F - 60.1 °F 56% 29.80 in 10.0 mi North 5.8 mph - N/A   Clear
1:54 PM 79.0 °F - 59.0 °F 50% 29.80 in 10.0 mi Calm Calm - N/A   Overcast
2:54 PM 75.9 °F - 61.0 °F 60% 29.81 in 10.0 mi West 6.9 mph - N/A   Overcast
3:54 PM 81.0 °F 81.7 °F 61.0 °F 50% 29.81 in 10.0 mi Variable 5.8 mph - N/A   Mostly Cloudy
4:54 PM 80.1 °F 80.2 °F 55.9 °F 43% 29.82 in 10.0 mi North 4.6 mph - N/A   Scattered Clouds
5:54 PM 78.1 °F - 55.0 °F 45% 29.83 in 10.0 mi North 4.6 mph - N/A   Clear
6:54 PM 75.0 °F - 53.1 °F 46% 29.84 in 10.0 mi NNW 3.5 mph - N/A   Clear
7:54 PM 66.0 °F - 59.0 °F 78% 29.86 in 10.0 mi Calm Calm - N/A   Clear
8:54 PM 64.9 °F - 55.9 °F 73% 29.87 in 10.0 mi Calm Calm - N/A   Clear
9:54 PM 61.0 °F - 55.9 °F 83% 29.89 in 10.0 mi Calm Calm - N/A   Clear
10:54 PM 60.1 °F - 55.0 °F 83% 29.91 in 10.0 mi Calm Calm - N/A   Clear
11:54 PM 57.0 °F - 55.0 °F 93% 29.91 in 10.0 mi Calm Calm - N/A   Clear